Погода в Софиевке

Россия / Воронежская область     49°57′58″N   39°36′17″E
темп.,
°C
ветер,
м/с
пор.,
м/с
влажн.,
%
обл.,
%
осадки,
мм/ч
давл.,
гПа
погр.,
м
19 января, вт
вт1900:00−19вюв1110060 0.0 101820
03:00−18юз019979 0.1 101820
06:00−17ююз1297100 0.1 101820
09:00−17ююз129799 0.3 101820
12:00−14юз239398 0.1 1018225
15:00−14зюз239699 0.1 1017125
18:00−17зюз229893 0.1 101923
21:00−18зсз239886 0.1 102020
20 января, ср
ср2000:00−19зсз239888 0.0 102121
03:00−21зсз239853 0.0 102220
06:00−22зсз339725 0.0 102326
09:00−21з339663 0.0 102560
12:00−18з349379 0.0 1026233
15:00−17з359455 0.0 1026251
18:00−20з23971 0.0 102820
21:00−20з33970 0.0 102826
21 января, чт
чт2100:00−20зюз23970 0.0 102920
03:00−21зюз23980 0.0 102920
06:00−21юз33980 0.0 103023
09:00−20ююз34953 0.0 103050
12:00−16ююз47900 0.0 1030217
15:00−14ююз598923 0.0 1027262
18:00−14ююз4109395 0.0 1027207
21:00−10юз7159496 0.0 1025387
22 января, пт
пт2200:00−6юз71394100 0.2 1024400
03:00−3юз71394100 0.3 1023438
06:00−1юз61294100 0.0 1022444
09:000юз5119597 0.0 1023522
12:00+1юз511100100 0.0 1022508
15:00+1юз61299100 0.0 1021541
18:00+1юз51399100 0.0 1021405
21:00+1ююз6139899 0.0 1021370
23 января, сб
сб2300:00+1ююз61298100 0.0 1021348
03:00+1ююз51197100 0.0 1021357
06:00+1ююз51198100 0.0 1020360
09:00+1ююз61398100 0.0 1021367
12:00+1ююз614100100 0.0 1020384
15:00+1ю612100100 0.0 1019355
18:00+1ю61299100 0.0 1019334
21:00+1ю61298100 0.0 1019305